Amateur Radio Satellites - All Passes

Search period start: 25 May 2013 10:36
Search period end: 26 May 2013 10:36
Location: Deer Lodge Site, 39.6809°N, 119.9392°W

Satellite Date Start Highest point End Downlink Frequencies (MHz)
Time Altitude Azimuth
PANSAT 25 May 10:41:05 10:42:36 12° 168° (SSE) 10:44:08 not established
JAS-2 25 May 10:51:58 10:58:46 83° 103° (ESE) 11:04:41 435.800 - 435.900 CW/SSB, 435.910 FM
UOSAT-12 25 May 11:01:19 11:05:48 73° 120° (ESE) 11:10:20 437.025 FM, 437.400 FM
MaSat-1 25 May 11:10:59 11:14:08 74° 63° (ENE) 11:16:46 437.345 MHz
Oscar 11 25 May 11:22:50 11:27:02 46° 287° (WNW) 11:31:12 145.825 FM, Beacon 2401.500 USB
OPAL 25 May 11:51:34 11:56:34 72° 288° (WNW) 12:01:28 ?
HO-68 25 May 12:17:54 12:23:15 23° 302° (WNW) 12:28:36 435.675 MHz FM
PANSAT 25 May 12:19:52 12:22:16 16° 181° (S) 12:24:40 not established
JAS-2 25 May 12:38:46 12:42:45 17° 304° (NW) 12:46:29 435.800 - 435.900 CW/SSB, 435.910 FM
UOSAT-12 25 May 12:43:44 12:46:29 16° 318° (NW) 12:49:16 437.025 FM, 437.400 FM
Oscar 19 25 May 12:58:39 13:02:33 22° 65° (ENE) 13:06:28 437.125 CW, 437.150 USB
Uribyol 2 25 May 13:01:38 13:05:23 21° 64° (ENE) 13:09:09 436.500 FM
Saudisat 1A 25 May 13:04:04 13:07:33 21° 45° (NE) 13:10:59 436.775 MHz
Oscar 16 25 May 13:37:07 13:42:13 58° 73° (ENE) 13:47:20 437.025 USB, Beacon 2401.1428
AO-27 25 May 13:53:11 13:58:15 60° 73° (ENE) 14:03:23 436.795 MHz FM
ITAMSAT 1 25 May 13:59:01 14:04:08 67° 74° (ENE) 14:09:18 435.822 SSB
PANSAT 25 May 14:00:45 14:01:55 11° 194° (SSW) 14:03:04 not established
Uosat F 25 May 14:14:49 14:17:18 14° 61° (ENE) 14:19:46 435.120 FM
AO-Echo 25 May 14:17:20 14:21:33 31° 69° (ENE) 14:25:43 ?
Sapphire 25 May 14:34:31 14:37:01 13° 41° (NE) 14:39:30 437.095 MHz 1200 baud AX-25 AFSK
Gurwin Techsat 1B 25 May 14:36:17 14:39:56 19° 63° (ENE) 14:43:36 435.225 FM
Oscar 19 25 May 14:36:37 14:41:35 45° 261° (W) 14:46:35 437.125 CW, 437.150 USB
Uribyol 2 25 May 14:39:31 14:44:30 49° 260° (W) 14:49:33 436.500 FM
Saudisat 1A 25 May 14:43:08 14:47:30 47° 243° (WSW) 14:51:46 436.775 MHz
RS-15 25 May 14:51:49 15:01:44 31° 104° (ESE) 15:11:20 29.354 - 29.394 USB, Beacon 29.352 USB
AO-7 25 May 15:00:56 15:05:47 17° 50° (NE) 15:10:37 29.400 - 29.500 MHz
Oscar 16 25 May 15:18:46 15:21:56 16° 268° (W) 15:25:07 437.025 USB, Beacon 2401.1428
AO-27 25 May 15:35:11 15:38:11 15° 269° (W) 15:41:12 436.795 MHz FM
ITAMSAT 1 25 May 15:41:31 15:44:06 14° 269° (W) 15:46:42 435.822 SSB
PCSat 25 May 15:42:59 15:48:09 42° 55° (NE) 15:53:15 145.825 MHz
TMSAT-1 25 May 15:50:30 15:55:41 61° 73° (ENE) 16:00:55 436.925 FM
Uosat F 25 May 15:50:30 15:55:29 71° 258° (WSW) 16:00:30 435.120 FM
AO-Echo 25 May 15:56:21 16:00:21 26° 264° (W) 16:04:18 ?
Gurwin Techsat 1B 25 May 16:14:18 16:19:28 54° 260° (W) 16:24:42 435.225 FM
Sapphire 25 May 16:15:58 16:21:25 74° 60° (ENE) 16:26:50 437.095 MHz 1200 baud AX-25 AFSK
AO-7 25 May 16:48:57 16:57:12 76° 69° (ENE) 17:05:31 29.400 - 29.500 MHz
SO-50 25 May 16:49:46 16:54:13 52° 54° (NE) 16:58:35 436.795 FM
RS-15 25 May 17:01:09 17:13:13 74° 304° (NW) 17:24:47 29.354 - 29.394 USB, Beacon 29.352 USB
PCSat 25 May 17:26:52 17:31:20 27° 252° (WSW) 17:35:48 145.825 MHz
TMSAT-1 25 May 17:32:53 17:36:01 16° 269° (W) 17:39:11 436.925 FM
Sapphire 25 May 18:01:25 18:04:10 14° 257° (WSW) 18:06:55 437.095 MHz 1200 baud AX-25 AFSK
JAS-1B 25 May 18:27:10 18:34:00 27° 63° (ENE) 18:40:03 435.800 - 435.900 CW/SSB
SO-50 25 May 18:31:40 18:34:22 16° 251° (WSW) 18:37:04 436.795 FM
Hamsat 25 May 18:35:16 18:38:53 28° 70° (ENE) 18:42:33 145.90 MHz
AO-7 25 May 18:44:40 18:50:42 22° 267° (W) 18:56:49 29.400 - 29.500 MHz
SO-67 25 May 18:53:04 18:54:26 12° 66° (ENE) 18:55:48 435.3500 MHz FM
STRAND 1 25 May 19:10:00 19:15:03 54° 100° (E) 19:20:05 ?
RS-15 25 May 19:18:32 19:28:00 27° 331° (NNW) 19:37:11 29.354 - 29.394 USB, Beacon 29.352 USB
UOSAT-12 25 May 19:31:51 19:36:20 49° 54° (NE) 19:40:48 437.025 FM, 437.400 FM
Hamsat 25 May 20:11:38 20:14:57 22° 266° (W) 20:18:19 145.90 MHz
JAS-1B 25 May 20:14:56 20:24:05 71° 257° (WSW) 20:31:52 435.800 - 435.900 CW/SSB
SO-67 25 May 20:24:09 20:27:31 40° 262° (W) 20:30:55 435.3500 MHz FM
Oscar 11 25 May 20:44:13 20:45:41 12° 63° (ENE) 20:47:08 145.825 FM, Beacon 2401.500 USB
STRAND 1 25 May 20:50:20 20:53:49 19° 297° (WNW) 20:57:18 ?
HO-68 25 May 20:56:34 21:03:20 48° 67° (ENE) 21:10:07 435.675 MHz FM
JAS-2 25 May 21:01:02 21:08:06 40° 66° (ENE) 21:15:09 435.800 - 435.900 CW/SSB, 435.910 FM
UOSAT-12 25 May 21:13:02 21:16:08 18° 250° (WSW) 21:19:13 437.025 FM, 437.400 FM
OPAL 25 May 21:28:19 21:32:19 23° 63° (ENE) 21:36:17 ?
RS-15 25 May 21:38:35 21:46:03 19° 8° (N) 21:53:20 29.354 - 29.394 USB, Beacon 29.352 USB
KITSAT 1 25 May 21:44:15 21:51:20 36° 108° (ESE) 21:58:28 435.175 FM
JAS-1B 25 May 22:12:06 22:15:23 12° 271° (W) 22:18:31 435.800 - 435.900 CW/SSB
Oscar 11 25 May 22:17:03 22:21:20 65° 259° (W) 22:25:39 145.825 FM, Beacon 2401.500 USB
HO-68 25 May 22:45:00 22:51:10 31° 264° (W) 22:57:23 435.675 MHz FM
JAS-2 25 May 22:45:32 22:52:53 46° 263° (W) 23:00:21 435.800 - 435.900 CW/SSB, 435.910 FM
AO-40 25 May 22:45:49 02:02:14 49° 181° (S) 08:30:51 Beacon 2401.320
OPAL 25 May 23:05:58 23:10:55 44° 259° (W) 23:15:50 ?
KITSAT 1 25 May 23:38:37 23:46:26 52° 307° (NW) 23:54:20 435.175 FM
RS-15 25 May 23:52:36 00:02:55 40° 41° (NE) 00:12:54 29.354 - 29.394 USB, Beacon 29.352 USB
MaSat-1 26 May 00:00:06 00:04:38 19° 104° (ESE) 00:08:43 437.345 MHz
ISS 26 May 00:59:28 01:02:16 26° 134° (SE) 01:05:06 145.800 FM
MaSat-1 26 May 01:39:26 01:46:28 76° 295° (WNW) 01:52:10 437.345 MHz
KITSAT 1 26 May 01:39:29 01:43:59 16° 332° (NNW) 01:48:30 435.175 FM
Oscar 16 26 May 01:50:37 01:54:35 22° 94° (E) 01:58:31 437.025 USB, Beacon 2401.1428
RS-15 26 May 02:05:04 02:15:56 66° 246° (WSW) 02:26:36 29.354 - 29.394 USB, Beacon 29.352 USB
AO-27 26 May 02:07:49 02:11:57 23° 94° (E) 02:16:05 436.795 MHz FM
ITAMSAT 1 26 May 02:13:25 02:17:45 26° 95° (E) 02:22:03 435.822 SSB
AO-Echo 26 May 02:28:24 02:28:38 10° 90° (E) 02:28:52 ?
ISS 26 May 02:35:50 02:38:54 34° 330° (NNW) 02:41:59 145.800 FM
Oscar 19 26 May 02:48:56 02:54:06 69° 102° (ESE) 02:59:12 437.125 CW, 437.150 USB
Uribyol 2 26 May 02:52:57 02:58:11 65° 102° (ESE) 03:03:22 436.500 FM
MaSat-1 26 May 03:26:00 03:29:06 14° 309° (NW) 03:31:56 437.345 MHz
Oscar 16 26 May 03:29:15 03:34:06 42° 290° (WNW) 03:38:56 437.025 USB, Beacon 2401.1428
AO-27 26 May 03:46:43 03:51:36 41° 290° (WNW) 03:56:29 436.795 MHz FM
ITAMSAT 1 26 May 03:52:31 03:57:18 37° 291° (WNW) 04:02:05 435.822 SSB
Uosat F 26 May 03:59:21 04:04:02 38° 98° (E) 04:08:42 435.120 FM
AO-Echo 26 May 04:03:08 04:07:56 78° 285° (WNW) 04:12:50 ?
TMSAT-1 26 May 04:07:49 04:12:14 26° 95° (E) 04:16:37 436.925 FM
ISS 26 May 04:14:56 04:16:23 12° 350° (N) 04:17:51 145.800 FM
RS-15 26 May 04:23:06 04:25:52 11° 265° (W) 04:28:38 29.354 - 29.394 USB, Beacon 29.352 USB
Oscar 19 26 May 04:30:03 04:32:51 15° 299° (WNW) 04:35:38 437.125 CW, 437.150 USB
Gurwin Techsat 1B 26 May 04:31:16 04:36:34 66° 102° (ESE) 04:41:50 435.225 FM
Uribyol 2 26 May 04:33:59 04:37:06 16° 298° (WNW) 04:40:14 436.500 FM
Saudisat 1A 26 May 04:49:14 04:53:40 56° 118° (ESE) 04:58:11 436.775 MHz
AO-7 26 May 04:52:25 04:59:06 26° 94° (E) 05:05:45 29.400 - 29.500 MHz
KITSAT 1 26 May 05:37:57 05:43:28 19° 34° (NE) 05:48:58 435.175 FM
Uosat F 26 May 05:38:37 05:42:38 25° 294° (WNW) 05:46:38 435.120 FM
TMSAT-1 26 May 05:47:22 05:52:13 38° 291° (WNW) 05:57:04 436.925 FM
ISS 26 May 05:52:49 05:54:16 12° 10° (N) 05:55:43 145.800 FM
Gurwin Techsat 1B 26 May 06:12:47 06:15:58 16° 298° (WNW) 06:19:09 435.225 FM
PCSat 26 May 06:24:01 06:29:07 44° 112° (ESE) 06:34:15 145.825 MHz
STRAND 1 26 May 06:25:14 06:30:18 72° 74° (ENE) 06:35:23 ?
Saudisat 1A 26 May 06:30:23 06:33:43 19° 316° (NW) 06:37:04 436.775 MHz
AO-7 26 May 06:44:09 06:52:25 67° 292° (WNW) 07:00:40 29.400 - 29.500 MHz
Sapphire 26 May 06:56:49 07:02:12 82° 117° (ESE) 07:07:39 437.095 MHz 1200 baud AX-25 AFSK
SO-50 26 May 07:05:12 07:08:51 22° 111° (ESE) 07:12:29 436.795 FM
ISS 26 May 07:28:41 07:31:46 33° 30° (NNE) 07:34:51 145.800 FM
KITSAT 1 26 May 07:32:22 07:40:30 69° 57° (ENE) 07:48:35 435.175 FM
SO-67 26 May 07:52:35 07:54:53 16° 93° (E) 07:57:10 435.3500 MHz FM
Hamsat 26 May 07:57:47 08:02:10 68° 101° (E) 08:06:32 145.90 MHz
JAS-1B 26 May 08:02:57 08:08:01 30° 95° (E) 08:12:56 435.800 - 435.900 CW/SSB
STRAND 1 26 May 08:07:56 08:10:00 12° 270° (W) 08:12:05 ?
PCSat 26 May 08:08:08 08:12:42 27° 310° (NW) 08:17:18 145.825 MHz
AO-7 26 May 08:39:26 08:43:40 15° 312° (NW) 08:47:54 29.400 - 29.500 MHz
Sapphire 26 May 08:42:53 08:46:19 17° 316° (NW) 08:49:47 437.095 MHz 1200 baud AX-25 AFSK
SO-50 26 May 08:44:38 08:49:13 43° 307° (NW) 08:53:44 436.795 FM
ISS 26 May 09:05:29 09:08:25 28° 226° (SW) 09:11:20 145.800 FM
SO-67 26 May 09:25:17 09:28:22 27° 288° (WNW) 09:31:26 435.3500 MHz FM
KITSAT 1 26 May 09:28:53 09:35:12 26° 256° (WSW) 09:41:30 435.175 FM
Hamsat 26 May 09:36:17 09:37:39 11° 297° (WNW) 09:39:01 145.90 MHz
UOSAT-12 26 May 09:44:12 09:47:07 17° 110° (ESE) 09:50:04 437.025 FM, 437.400 FM
JAS-1B 26 May 09:53:34 09:58:45 33° 294° (WNW) 10:03:43 435.800 - 435.900 CW/SSB
JAS-2 26 May 09:57:45 10:03:27 30° 93° (E) 10:08:33 435.800 - 435.900 CW/SSB, 435.910 FM
Oscar 11 26 May 10:06:26 10:09:59 24° 95° (E) 10:13:30 145.825 FM, Beacon 2401.500 USB
HO-68 26 May 10:12:17 10:19:17 53° 101° (ESE) 10:26:14 435.675 MHz FM
PANSAT 26 May 10:18:28 10:20:11 13° 169° (S) 10:21:54 not established
MaSat-1 26 May 10:26:26 10:29:06 24° 56° (NE) 10:31:24 437.345 MHz

Developed and maintained by Chris Peat, Heavens-Above GmbH. Please read the updated FAQ before sending e-mail. Imprint. DLR
